FW5486 Weather Reports


Display with metric or nautical units.
time (UTC)temp
F
wind
direction
speed
MPH
gust
MPH
rain 1hr
in
rain 24hr
in
rain mn
in
humidity
%
barometer
mb
20260831024459 80 110 2.0 4.0 0.00 0.28 0.28 84 1017.3
20260831023952 80 102 2.0 4.0 0.00 0.28 0.28 84 1017.3
20260831023449 81 109 2.0 4.0 0.00 0.28 0.28 84 1017.4
20260831022953 81 106 1.0 3.0 0.00 0.28 0.28 84 1017.1
20260831022948 81 121 1.0 4.0 0.00 0.28 0.28 84 1017.2
20260831021946 81 128 2.0 4.0 0.00 0.28 0.28 84 1016.9
20260831021439 81 119 2.0 4.0 0.00 0.28 0.28 84 1016.8
20260831021211 81 126 1.0 3.0 0.00 0.28 0.28 84 1016.8
20260831020439 81 132 1.0 3.0 0.00 0.28 0.28 83 1016.7
20260831015941 81 104 1.0 3.0 0.00 0.28 0.28 83 1016.7
20260831015440 81 105 2.0 3.0 0.00 0.28 0.28 83 1016.4
20260831014941 81 107 2.0 4.0 0.00 0.28 0.28 82 1016.3
20260831014438 81 117 2.0 4.0 0.00 0.28 0.28 82 1016.2
20260831014206 81 127 2.0 4.0 0.00 0.28 0.28 82 1016.2
20260831013436 81 108 2.0 4.0 0.00 0.28 0.28 82 1016.2
20260831012939 81 121 2.0 4.0 0.00 0.28 0.28 82 1016.1
20260831012709 82 86 2.0 5.0 0.00 0.28 0.28 82 1016.5
20260831011934 82 100 2.0 6.0 0.00 0.28 0.28 82 1016.0
20260831011434 82 94 3.0 6.0 0.00 0.28 0.28 82 1016.0
20260831010929 82 102 2.0 6.0 0.00 0.28 0.28 83 1015.9
20260831010428 82 107 3.0 7.0 0.00 0.28 0.28 83 1015.7
20260831005928 82 89 2.0 7.0 0.00 0.28 0.28 83 1015.7
20260831005426 82 93 2.0 7.0 0.00 0.28 0.28 83 1015.8
20260831004926 82 113 1.0 3.0 0.00 0.28 0.28 84 1015.8
20260831004705 82 125 2.0 6.0 0.01 0.28 0.28 85 1015.9
20260831004425 82 99 2.0 4.0 0.00 0.28 0.28 85 1015.8
20260831003927 82 107 2.0 4.0 0.00 0.28 0.28 85 1015.8
20260831002921 82 129 2.0 6.0 0.01 0.28 0.28 85 1016.0
20260831002652 82 111 3.0 7.0 0.07 0.28 0.28 86 1016.0
20260831001922 82 89 3.0 7.0 0.17 0.28 0.28 85 1016.0
20260831001421 82 122 3.0 6.0 0.28 0.28 0.28 85 1015.9
20260831000924 82 107 3.0 6.0 0.28 0.28 0.28 87 1015.8
20260831000417 82 78 2.0 6.0 0.28 0.28 0.28 87 1015.8
20260830235918 82 127 4.0 8.0 0.28 0.28 0.28 87 1015.7
20260830235417 82 131 5.0 10.0 0.28 0.28 0.28 87 1015.5
20260830234917 82 101 4.0 10.0 0.28 0.28 0.28 87 1015.5
20260830234418 81 109 5.0 12.0 0.28 0.28 0.28 87 1015.4
20260830233916 81 138 6.0 15.0 0.28 0.28 0.28 85 1015.3
20260830233414 82 187 7.0 15.0 0.27 0.27 0.28 84 1015.3
20260830233145 82 115 9.0 16.0 0.27 0.27 0.27 83 1015.5
20260830232414 84 111 12.0 21.0 0.21 0.21 0.24 81 1015.9
20260830231912 86 111 13.0 23.0 0.11 0.11 0.11 77 1016.0
20260830231413 89 148 11.0 23.0 0.00 0.00 0.00 68 1015.9
20260830230907 91 103 8.0 16.0 0.00 0.00 0.00 62 1015.7
20260830230408 92 84 5.0 11.0 0.00 0.00 0.00 58 1015.5
20260830225906 92 137 4.0 9.0 0.00 0.00 0.00 57 1015.3
20260830225406 92 76 3.0 9.0 0.00 0.00 0.00 57 1015.2
20260830224906 93 82 3.0 9.0 0.00 0.00 0.00 56 1015.3
20260830224406 93 69 4.0 9.0 0.00 0.00 0.00 55 1015.3
20260830224136 94 94 4.0 9.0 0.00 0.00 0.00 55 1015.4
20260830223401 95 80 3.0 9.0 0.00 0.00 0.00 54 1015.3
20260830222901 94 124 3.0 9.0 0.00 0.00 0.00 55 1015.2
20260830222400 94 71 4.0 9.0 0.00 0.00 0.00 53 1015.2
20260830221900 94 90 3.0 9.0 0.00 0.00 0.00 53 1015.1
20260830221359 94 74 3.0 9.0 0.00 0.00 0.00 53 1015.2
20260830220853 94 5 3.0 9.0 0.00 0.00 0.00 53 1015.1
20260830220353 94 59 3.0 8.0 0.00 0.00 0.00 53 1015.3
20260830215853 94 42 3.0 9.0 0.00 0.00 0.00 53 1015.3
20260830215356 94 18 3.0 9.0 0.00 0.00 0.00 51 1015.3
20260830214851 94 5 3.0 8.0 0.00 0.00 0.00 54 1015.2
20260830214352 94 79 4.0 8.0 0.00 0.00 0.00 51 1015.3
20260830214122 94 57 5.0 11.0 0.00 0.00 0.00 52 1015.3
20260830213621 94 86 4.0 11.0 0.00 0.00 0.00 53 1015.3
20260830212847 94 22 2.0 9.0 0.00 0.00 0.00 52 1015.4
20260830212620 94 53 3.0 9.0 0.00 0.00 0.00 52 1015.4
20260830211846 94 21 3.0 9.0 0.00 0.00 0.00 52 1015.6
20260830211346 94 63 3.0 9.0 0.00 0.00 0.00 51 1015.5
20260830210845 94 80 4.0 10.0 0.00 0.00 0.00 51 1015.5
20260830210610 94 47 5.0 12.0 0.00 0.00 0.00 51 1015.5
20260830205339 94 28 2.0 8.0 0.00 0.00 0.00 52 1015.6
20260830204840 94 37 3.0 10.0 0.00 0.00 0.00 52 1015.6
20260830204339 94 76 3.0 10.0 0.00 0.00 0.00 49 1015.7
20260830203841 94 9 3.0 7.0 0.00 0.00 0.00 53 1015.9
20260830203336 94 82 4.0 11.0 0.00 0.00 0.00 52 1015.9
20260830202835 94 82 3.0 11.0 0.00 0.00 0.00 52 1016.0
20260830202608 93 68 3.0 12.0 0.00 0.00 0.00 51 1016.1
20260830202107 94 52 4.0 12.0 0.00 0.00 0.00 51 1016.3
20260830201335 94 33 4.0 10.0 0.00 0.00 0.00 51 1016.4
20260830200833 94 90 4.0 9.0 0.00 0.00 0.00 52 1016.3
20260830200328 94 28 6.0 14.0 0.00 0.00 0.00 51 1016.5
20260830195829 94 67 6.0 14.0 0.00 0.00 0.00 52 1016.4
20260830195329 94 65 3.0 12.0 0.00 0.00 0.00 52 1016.4
20260830194829 94 355 2.0 12.0 0.00 0.00 0.00 52 1016.4
20260830194328 94 327 3.0 12.0 0.00 0.00 0.00 52 1016.5
20260830194058 94 77 4.0 12.0 0.00 0.00 0.00 50 1016.7
20260830193322 94 321 4.0 9.0 0.00 0.00 0.00 50 1016.7
20260830192820 94 87 4.0 9.0 0.00 0.00 0.00 50 1016.9
20260830192317 94 34 4.0 14.0 0.00 0.00 0.00 50 1017.0
20260830191815 94 99 5.0 14.0 0.00 0.00 0.00 48 1017.2
20260830191315 94 71 6.0 13.0 0.00 0.00 0.00 49 1017.1
20260830190810 94 81 5.0 13.0 0.00 0.00 0.00 51 1017.2
20260830190306 94 125 3.0 10.0 0.00 0.00 0.00 52 1017.1
20260830185807 93 355 3.0 9.0 0.00 0.00 0.00 50 1017.3
20260830185309 94 5 3.0 8.0 0.00 0.00 0.00 52 1017.3
20260830184807 94 91 3.0 8.0 0.00 0.00 0.00 51 1017.2
20260830184309 93 84 3.0 7.0 0.00 0.00 0.00 51 1017.4
20260830183802 93 63 4.0 9.0 0.00 0.00 0.00 51 1017.4
20260830183258 93 69 4.0 9.0 0.00 0.00 0.00 53 1017.4
20260830182757 93 60 3.0 13.0 0.00 0.00 0.00 53 1017.5
20260830182256 92 42 4.0 13.0 0.00 0.00 0.00 53 1017.6
20260830181758 93 76 3.0 10.0 0.00 0.00 0.00 53 1017.6
20260830181252 93 317 3.0 11.0 0.00 0.00 0.00 52 1017.8
20260830180753 93 80 3.0 11.0 0.00 0.00 0.00 54 1017.9
20260830180253 93 72 4.0 11.0 0.00 0.00 0.00 56 1018.0
20260830175751 93 69 4.0 11.0 0.00 0.00 0.00 55 1018.0
20260830175520 93 68 3.0 9.0 0.00 0.00 0.00 59 1018.0
20260830174749 92 42 3.0 9.0 0.00 0.00 0.00 57 1017.9
20260830174516 93 74 3.0 9.0 0.00 0.00 0.00 58 1018.0
20260830173742 93 57 4.0 8.0 0.00 0.00 0.00 59 1018.1
20260830173242 93 61 4.0 9.0 0.00 0.00 0.00 58 1018.1
20260830173013 92 92 5.0 11.0 0.00 0.00 0.00 58 1018.2
20260830172243 92 82 5.0 11.0 0.00 0.00 0.00 55 1018.5
20260830171743 92 65 3.0 10.0 0.00 0.00 0.00 59 1018.5
20260830171242 91 0 3.0 8.0 0.00 0.00 0.00 61 1018.5
20260830170743 91 55 3.0 10.0 0.00 0.00 0.00 57 1018.5
20260830170243 92 27 3.0 10.0 0.00 0.00 0.00 60 1018.5
20260830165742 91 19 4.0 9.0 0.00 0.00 0.00 62 1018.4
20260830165245 91 53 3.0 9.0 0.00 0.00 0.00 62 1018.5
20260830165016 91 26 3.0 7.0 0.00 0.00 0.00 62 1018.5
20260830164240 91 182 4.0 10.0 0.00 0.00 0.00 60 1018.6
20260830163739 91 69 5.0 10.0 0.00 0.00 0.00 62 1018.7
20260830163239 90 76 5.0 10.0 0.00 0.00 0.00 63 1018.7
20260830162738 90 102 3.0 10.0 0.00 0.00 0.00 63 1018.7
20260830162510 90 54 2.0 7.0 0.00 0.00 0.00 64 1018.9
20260830161739 90 65 1.0 8.0 0.00 0.00 0.00 64 1018.8
20260830161234 89 19 2.0 8.0 0.00 0.00 0.00 67 1018.9
20260830160735 89 288 3.0 8.0 0.00 0.00 0.00 66 1018.9
20260830160234 89 342 1.0 8.0 0.00 0.00 0.00 67 1018.9
20260830155735 89 27 0.0 0.0 0.00 0.00 0.00 66 1018.8
20260830155235 89 63 0.0 2.0 0.00 0.00 0.00 68 1018.9
20260830154735 88 355 0.0 2.0 0.00 0.00 0.00 69 1018.8
20260830154503 88 30 0.0 3.0 0.00 0.00 0.00 69 1018.8
20260830153729 88 22 0.0 6.0 0.00 0.00 0.00 70 1018.7
20260830153456 87 355 0.0 6.0 0.00 0.00 0.00 70 1018.8
20260830152726 87 86 0.0 6.0 0.00 0.00 0.00 70 1018.8
20260830152225 87 47 1.0 6.0 0.00 0.00 0.00 72 1018.6
20260830151725 87 55 0.0 5.0 0.00 0.00 0.00 72 1018.7
20260830151224 87 42 0.0 4.0 0.00 0.00 0.00 74 1018.7
20260830150954 87 69 0.0 4.0 0.00 0.00 0.00 72 1018.6
20260830150222 87 45 0.0 4.0 0.00 0.00 0.00 73 1018.6
20260830145723 87 350 0.0 3.0 0.00 0.00 0.00 74 1018.7
20260830145221 87 39 0.0 2.0 0.00 0.00 0.00 73 1018.6
20260830144719 87 350 0.0 3.0 0.00 0.00 0.00 75 1018.4
20260830144451 86 350 0.0 3.0 0.00 0.00 0.00 75 1018.6
20260830143716 86 49 0.0 2.0 0.00 0.00 0.00 76 1018.5
20260830143444 86 341 0.0 0.0 0.00 0.00 0.00 76 1018.5
20260830142715 85 283 0.0 2.0 0.00 0.00 0.00 77 1018.5
20260830142214 85 0 0.0 2.0 0.00 0.00 0.00 78 1018.6
20260830141713 85 261 1.0 5.0 0.00 0.00 0.00 79 1018.6
20260830141212 85 355 1.0 5.0 0.00 0.00 0.00 79 1018.5
20260830140711 85 315 0.0 3.0 0.00 0.00 0.00 80 1018.5
20260830140208 84 5 1.0 3.0 0.00 0.00 0.00 82 1018.5
20260830135710 84 27 1.0 3.0 0.00 0.00 0.00 81 1018.6
20260830135207 83 355 1.0 5.0 0.00 0.00 0.00 81 1018.4
20260830134705 83 24 1.0 5.0 0.00 0.00 0.00 83 1018.5
20260830134205 83 5 2.0 5.0 0.00 0.00 0.00 83 1018.4
20260830133700 82 48 1.0 5.0 0.00 0.00 0.00 84 1018.4
20260830133435 81 0 1.0 5.0 0.00 0.00 0.00 87 1018.4
20260830133200 82 355 1.0 5.0 0.00 0.00 0.00 86 1018.4
20260830132200 80 15 0.0 2.0 0.00 0.00 0.00 88 1018.3
20260830131659 80 63 0.0 0.0 0.00 0.00 0.00 90 1018.4
20260830131202 79 103 0.0 0.0 0.00 0.00 0.00 91 1018.4
20260830131155 78 103 0.0 0.0 0.00 0.00 0.00 92 1018.5
20260830130155 78 103 0.0 0.0 0.00 0.00 0.00 92 1018.4
20260830125655 77 103 0.0 0.0 0.00 0.00 0.00 92 1018.3
20260830125155 77 103 0.0 0.0 0.00 0.00 0.00 93 1018.4
20260830124653 76 103 0.0 0.0 0.00 0.00 0.00 93 1018.4
20260830124206 76 103 0.0 0.0 0.00 0.00 0.00 93 1018.4
20260830123647 75 103 0.0 0.0 0.00 0.00 0.00 93 1018.4
20260830123145 75 103 0.0 0.0 0.00 0.00 0.00 93 1018.4
20260830122643 75 103 0.0 0.0 0.00 0.00 0.00 94 1018.1
20260830122412 74 103 0.0 0.0 0.00 0.00 0.00 93 1018.2
20260830121913 74 103 0.0 0.0 0.00 0.00 0.00 93 1018.1
20260830121142 74 103 0.0 0.0 0.00 0.00 0.00 93 1018.1
20260830120637 74 103 0.0 0.0 0.00 0.00 0.00 93 1018.1
20260830120137 74 103 0.0 0.0 0.00 0.00 0.00 93 1018.0
20260830115636 74 103 0.0 0.0 0.00 0.00 0.00 93 1018.0
20260830115134 74 103 0.0 0.0 0.00 0.00 0.00 93 1017.9
20260830114634 74 103 0.0 0.0 0.00 0.00 0.00 93 1017.8
20260830114131 74 103 0.0 0.0 0.00 0.00 0.00 93 1017.8
20260830113629 74 103 0.0 0.0 0.00 0.00 0.00 93 1017.7
20260830113129 74 103 0.0 0.0 0.00 0.00 0.00 93 1017.8
20260830112628 74 103 0.0 0.0 0.00 0.00 0.00 93 1017.7
20260830112128 74 103 0.0 0.0 0.00 0.00 0.00 93 1017.7
20260830111629 74 103 0.0 0.0 0.00 0.00 0.00 93 1017.6
20260830111356 74 103 0.0 0.0 0.00 0.00 0.00 92 1017.5
20260830110628 75 103 0.0 0.0 0.00 0.00 0.00 93 1017.4
20260830110623 74 103 0.0 0.0 0.00 0.00 0.00 93 1017.4
20260830105624 74 103 0.0 0.0 0.00 0.00 0.00 92 1017.4
20260830105123 75 103 0.0 0.0 0.00 0.00 0.00 92 1017.3
20260830104624 75 103 0.0 0.0 0.00 0.00 0.00 92 1017.3
20260830104117 75 103 0.0 1.0 0.00 0.00 0.00 92 1017.4
20260830103614 75 103 0.0 1.0 0.00 0.00 0.00 92 1017.3
20260830103343 75 103 0.0 0.0 0.00 0.00 0.00 92 1017.4
20260830102611 75 103 0.0 0.0 0.00 0.00 0.00 92 1017.4
20260830102342 75 103 0.0 0.0 0.00 0.00 0.00 92 1017.2
20260830101609 75 103 0.0 0.0 0.00 0.00 0.00 92 1017.2
20260830101106 75 103 0.0 0.0 0.00 0.00 0.00 92 1017.2
20260830100837 75 103 0.0 0.0 0.00 0.00 0.00 92 1017.2
20260830100106 76 103 0.0 0.0 0.00 0.00 0.00 92 1017.1
20260830095605 75 103 0.0 2.0 0.00 0.00 0.00 92 1017.2
20260830095105 76 103 0.0 2.0 0.00 0.00 0.00 92 1017.2
20260830094838 76 103 0.0 2.0 0.00 0.00 0.00 92 1017.2
20260830094102 76 103 0.0 2.0 0.00 0.00 0.00 92 1017.1
20260830093557 76 103 0.0 2.0 0.00 0.00 0.00 92 1017.0
20260830093053 76 103 0.0 2.0 0.00 0.00 0.00 92 1017.0
20260830092553 76 103 1.0 3.0 0.00 0.00 0.00 92 1017.0
20260830092326 76 103 2.0 6.0 0.00 0.00 0.00 92 1017.1
20260830091826 76 103 2.0 6.0 0.00 0.00 0.00 92 1016.9
20260830091325 76 103 0.0 4.0 0.00 0.00 0.00 92 1017.0
20260830090555 76 199 0.0 0.0 0.00 0.00 0.00 92 1016.8
20260830090049 76 199 0.0 0.0 0.00 0.00 0.00 92 1016.8
20260830085549 76 199 0.0 0.0 0.00 0.00 0.00 92 1016.7
20260830085050 76 199 0.0 0.0 0.00 0.00 0.00 92 1016.8
20260830084550 76 199 0.0 0.0 0.00 0.00 0.00 91 1016.8
20260830084050 76 199 0.0 0.0 0.00 0.00 0.00 91 1016.8
20260830083551 76 199 0.0 0.0 0.00 0.00 0.00 91 1016.9
20260830083050 76 199 0.0 0.0 0.00 0.00 0.00 91 1016.8
20260830082820 76 199 0.0 0.0 0.00 0.00 0.00 91 1016.7
20260830082051 76 199 0.0 0.0 0.00 0.00 0.00 91 1016.8
20260830081552 76 199 0.0 0.0 0.00 0.00 0.00 91 1016.6
20260830081052 76 199 0.0 0.0 0.00 0.00 0.00 91 1016.6
20260830080548 76 199 0.0 0.0 0.00 0.00 0.00 91 1016.6
20260830080044 77 199 0.0 0.0 0.00 0.00 0.00 91 1016.6
20260830075543 77 199 0.0 0.0 0.00 0.00 0.00 91 1016.7
20260830075038 77 199 0.0 0.0 0.00 0.00 0.00 91 1016.7
20260830074540 77 199 0.0 0.0 0.00 0.00 0.00 91 1016.8
20260830074040 77 199 0.0 0.0 0.00 0.00 0.00 91 1016.7
20260830073540 77 199 0.0 0.0 0.00 0.00 0.00 90 1016.8
20260830073037 77 199 0.0 0.0 0.00 0.00 0.00 90 1016.9
20260830072540 77 199 0.0 0.0 0.00 0.00 0.00 91 1017.0
20260830072536 77 199 0.0 0.0 0.00 0.00 0.00 91 1016.8
20260830071536 77 199 0.0 0.0 0.00 0.00 0.00 90 1017.1
20260830071307 77 199 0.0 0.0 0.00 0.00 0.00 90 1017.2
20260830070536 77 199 0.0 0.0 0.00 0.00 0.00 91 1017.2
20260830070036 77 199 0.0 0.0 0.00 0.00 0.00 90 1017.2
20260830065801 77 199 0.0 0.0 0.00 0.00 0.00 90 1017.4
20260830065028 77 199 0.0 0.0 0.00 0.00 0.00 90 1017.3
20260830064756 78 199 0.0 0.0 0.00 0.00 0.00 90 1017.4
20260830064024 78 199 0.0 0.0 0.00 0.00 0.00 90 1017.5
20260830063523 78 199 0.0 0.0 0.00 0.00 0.00 90 1017.5
20260830063018 78 199 0.0 0.0 0.00 0.00 0.00 90 1017.5
20260830062516 78 199 0.0 0.0 0.00 0.00 0.00 90 1017.5
20260830062014 78 199 0.0 0.0 0.00 0.00 0.00 90 1017.6
20260830061512 78 199 0.0 0.0 0.00 0.00 0.00 90 1017.7
20260830061011 78 199 0.0 0.0 0.00 0.00 0.00 89 1017.7
20260830060508 78 199 0.0 0.0 0.00 0.00 0.00 89 1017.7
20260830060008 78 199 0.0 0.0 0.00 0.00 0.00 89 1017.7
20260830055738 78 199 0.0 0.0 0.00 0.00 0.00 89 1017.8
20260830055008 78 199 0.0 0.0 0.00 0.00 0.00 89 1017.9
20260830054506 78 199 0.0 0.0 0.00 0.00 0.00 89 1017.8
20260830054007 78 199 0.0 0.0 0.00 0.00 0.00 89 1017.8
20260830053503 78 199 0.0 0.0 0.00 0.00 0.00 89 1017.7
20260830053004 79 200 0.0 0.0 0.00 0.00 0.00 88 1017.7
20260830052735 79 200 0.0 0.0 0.00 0.00 0.00 88 1017.7
20260830052002 79 199 0.0 0.0 0.00 0.00 0.00 89 1017.7
20260830051459 79 199 0.0 0.0 0.00 0.00 0.00 88 1017.7
20260830050959 79 199 0.0 0.0 0.00 0.00 0.00 88 1017.7
20260830050453 79 199 0.0 0.0 0.00 0.00 0.00 87 1017.7
20260830050220 79 199 0.0 2.0 0.00 0.00 0.00 87 1017.7
20260830045449 79 199 0.0 2.0 0.00 0.00 0.00 87 1017.7
20260830044946 79 199 0.0 2.0 0.00 0.00 0.00 87 1017.9
20260830044717 79 199 0.0 2.0 0.00 0.00 0.00 86 1017.8
20260830043939 79 199 0.0 2.0 0.00 0.00 0.00 86 1017.7
20260830043439 79 199 0.0 2.0 0.00 0.00 0.00 86 1017.9
20260830042941 80 200 0.0 0.0 0.00 0.00 0.00 85 1017.7
20260830042441 80 199 0.0 0.0 0.00 0.00 0.00 85 1017.8
20260830042212 80 199 0.0 0.0 0.00 0.00 0.00 84 1017.7
20260830041440 80 199 0.0 0.0 0.00 0.00 0.00 84 1017.8
20260830040936 80 200 0.0 0.0 0.00 0.00 0.00 83 1017.7
20260830040436 80 199 0.0 0.0 0.00 0.00 0.00 83 1017.6
20260830035936 80 200 0.0 0.0 0.00 0.00 0.00 83 1017.6
20260830035710 80 264 0.0 0.0 0.00 0.00 0.00 82 1017.4
20260830034935 80 264 0.0 0.0 0.00 0.00 0.00 82 1017.5
20260830034706 81 264 0.0 0.0 0.00 0.00 0.00 82 1017.4
20260830034552 81 264 0.0 0.0 0.00 0.00 0.00 81 1017.5
20260830033429 81 264 0.0 0.0 0.00 0.00 0.00 81 1017.4
20260830032931 81 264 0.0 0.0 0.00 0.00 0.00 81 1017.4
20260830032430 81 264 0.0 0.0 0.00 0.00 0.00 81 1017.3
20260830031929 81 264 0.0 0.0 0.00 0.00 0.00 80 1017.3
20260830031429 81 264 0.0 0.0 0.00 0.00 0.00 80 1017.4
20260830030922 82 264 0.0 0.0 0.00 0.00 0.00 80 1017.4
20260830030420 82 264 0.0 0.0 0.00 0.00 0.00 80 1017.3
20260830025918 82 264 0.0 0.0 0.00 0.00 0.00 80 1017.3
20260830025416 82 264 0.0 0.0 0.00 0.00 0.00 80 1017.3
20260830025147 82 264 0.0 0.0 0.00 0.00 0.00 79 1017.4